GFSSW_500_rhum_006.txt.gz
RH
13 9 3 2 2 2 2 2 2 1 1 2 2 2 1 2 2 4 6 6 7 11 15 19 18 18 17 17 22 51 54 51 41 58 30 15 9 13 6 7 6 6 6 7 8
9 2 2 2 2 3 3 2 2 2 2 2 2 2 1 2 2 2 4 6 6 7 13 12 23 25 27 25 23 62 67 39 27 27 24 25 21 21 17 24 29 28 31 31 28
2 3 2 2 4 4 4 4 4 4 3 2 3 2 2 2 3 3 2 2 3 2 1 2 8 14 20 20 20 26 24 25 18 16 21 18 16 12 13 22 10 6 6 15 18
2 4 4 5 5 5 4 4 4 4 3 3 4 4 4 3 3 3 3 4 4 5 4 3 3 3 3 4 4 4 4 4 4 4 4 4 4 4 4 5 4 4 3 4 4
2 4 4 5 5 4 4 4 4 4 5 4 4 4 5 6 6 4 5 6 6 6 7 7 6 4 6 5 6 6 6 6 5 5 6 5 5 5 5 5 5 7 9 8 8
3 4 5 6 5 3 3 4 4 5 5 6 7 7 6 6 6 7 8 8 9 10 10 10 11 11 10 10 9 10 10 9 8 7 8 7 8 10 11 12 14 15 16 17 18
5 6 6 6 5 4 4 4 3 3 5 5 7 10 8 10 8 9 9 10 12 13 13 13 13 13 16 15 15 15 12 12 12 12 12 12 12 13 16 14 16 15 18 18 20
6 6 6 6 4 4 4 4 4 4 4 4 6 6 7 11 12 12 12 13 13 14 15 15 16 18 18 20 25 18 24 64 20 17 17 18 20 24 22 23 24 24 21 20 21
6 5 4 4 4 4 5 5 5 5 5 6 6 6 7 7 7 10 12 13 12 13 13 14 16 19 22 21 37 72 38 26 24 21 20 20 23 26 28 29 24 23 24 23 21
7 6 7 7 7 6 6 6 6 7 7 6 6 8 6 7 8 8 8 11 12 14 14 14 15 14 17 20 26 33 28 24 22 23 26 24 26 24 21 18 16 18 15 13 18
4 7 8 10 9 9 8 5 5 6 6 6 5 6 6 7 8 8 8 9 12 15 16 16 16 19 21 24 28 28 24 22 22 23 26 26 25 22 21 21 15 12 12 12 11
2 3 4 4 7 7 6 8 8 7 6 6 5 4 4 6 8 9 9 9 11 14 16 17 20 22 24 26 27 26 24 24 27 22 21 28 23 22 19 14 13 14 14 14 14
2 2 2 5 5 6 6 5 8 8 6 5 4 4 4 5 9 12 11 10 12 13 16 17 18 22 23 26 29 27 28 27 26 25 18 25 27 13 18 14 14 17 16 16 18
1 2 2 2 3 5 5 5 6 6 6 5 4 4 6 7 12 15 15 12 12 14 17 17 20 21 23 23 24 26 25 26 27 28 26 22 34 61 23 17 19 22 25 28 30
5 3 2 2 3 3 3 3 4 4 5 7 7 11 11 13 19 18 20 14 14 16 18 21 21 20 21 23 24 24 23 24 26 27 29 27 27 54 52 46 34 29 31 37 43
10 7 8 8 6 6 6 6 6 5 5 10 17 24 24 23 23 22 22 20 16 18 19 20 20 19 20 20 23 23 22 24 23 28 32 31 35 39 64 79 44 49 58 44 41
14 16 10 7 9 9 10 12 13 12 19 22 27 29 28 31 32 29 24 23 24 22 21 20 12 18 21 22 19 22 24 24 27 35 37 48 35 43 53 70 71 76 61 51 47
14 26 19 12 11 14 15 16 17 20 20 22 21 22 23 23 26 36 39 27 24 23 24 21 20 15 21 22 24 28 33 34 34 34 34 40 44 46 66 84 81 72 71 57 42
18 32 26 22 16 14 18 18 18 19 20 20 21 21 21 26 31 31 33 32 26 25 24 20 20 20 27 30 31 36 35 38 37 40 36 36 46 55 81 99 99 94 88 62 67
18 26 31 28 26 25 26 22 22 19 19 21 24 35 40 34 41 42 33 34 28 28 20 14 20 30 32 35 33 37 38 39 40 39 41 43 52 55 90 94 94 99 99 80 70
14 18 28 36 44 51 53 59 62 59 58 56 48 42 40 42 47 45 40 32 31 20 19 22 23 29 35 38 38 40 43 50 48 58 57 45 42 73 74 65 66 64 66 68 71
15 18 27 37 44 52 49 58 56 65 60 52 42 38 38 41 42 39 38 34 29 30 32 34 36 33 40 43 45 47 55 60 64 53 56 46 29 60 67 76 73 82 78 69 66
13 18 23 30 40 47 52 52 60 58 56 51 44 48 52 53 48 47 43 48 42 42 43 42 36 35 43 46 36 37 48 55 58 60 53 65 37 75 78 79 77 72 67 65 67
11 15 18 23 31 38 47 55 54 58 62 58 56 55 60 63 61 56 53 43 52 47 43 38 44 43 51 48 44 44 49 63 70 56 57 67 60 74 85 80 74 71 65 66 68
13 14 15 19 19 24 36 48 57 58 64 68 71 71 69 66 65 60 58 57 56 51 60 64 56 54 63 55 55 54 52 73 78 78 71 64 84 81 79 75 67 67 62 64 61
13 16 18 20 20 20 24 26 28 38 52 48 57 52 55 53 50 50 57 62 59 56 55 54 47 47 48 50 52 49 64 63 61 65 67 66 60 83 73 68 64 66 69 62 67
15 17 18 20 21 23 24 26 28 28 27 28 31 35 37 39 40 39 38 37 37 39 41 43 50 49 42 50 50 50 60 60 55 69 78 77 76 73 69 64 67 66 60 62 62

GFSSW_500_rhum_009.txt.gz
RH
7 10 10 3 2 1 1 1 1 2 2 1 1 1 1 2 2 2 4 5 7 14 17 14 17 19 15 27 46 48 52 50 25 17 15 17 14 17 17 20 18 23 24 22 28
16 8 2 1 2 2 2 1 2 2 2 2 2 3 3 2 2 2 2 1 4 7 15 16 15 14 16 22 22 30 26 37 25 23 22 15 16 5 8 7 4 11 6 6 6
4 2 1 3 2 2 2 2 2 3 2 2 3 3 3 4 4 3 3 3 2 2 6 6 6 7 18 20 16 12 19 9 7 7 5 4 4 3 4 4 5 3 4 4 4
2 2 4 3 4 4 4 3 2 3 3 3 3 3 3 4 5 4 5 5 6 6 4 4 4 4 4 4 4 3 4 3 4 4 4 4 4 4 4 6 8 9 10 11 10
2 4 4 4 4 4 4 4 3 3 3 4 5 5 5 5 6 7 8 8 8 6 5 5 5 5 6 7 7 8 6 3 4 6 6 7 8 9 10 11 13 13 15 16 16
4 5 5 4 4 4 4 4 4 4 3 4 4 5 6 6 7 7 9 9 9 10 11 12 12 12 9 8 8 8 7 6 5 5 7 11 11 12 12 10 15 14 18 18 18
4 5 4 3 3 4 4 4 4 5 5 4 6 6 8 11 9 11 12 12 14 13 14 15 17 16 16 14 14 14 13 11 12 13 14 16 15 18 18 20 20 19 24 20 18
5 6 4 4 4 4 3 3 4 4 5 5 6 8 8 11 12 12 12 13 13 14 15 16 19 19 19 16 18 17 14 12 14 15 17 19 19 20 12 12 13 19 21 22 24
6 6 6 5 5 4 4 3 4 4 6 5 6 7 7 7 8 10 12 13 13 13 14 15 16 19 20 22 18 13 17 19 19 18 17 19 22 20 16 14 10 10 9 9 9
6 6 6 4 4 4 4 4 4 4 5 6 6 7 7 8 8 8 8 11 13 15 16 16 14 16 16 22 24 26 25 20 19 18 19 17 19 19 17 15 10 10 10 8 7
6 6 5 6 7 6 5 5 5 5 4 5 4 4 4 5 8 9 9 9 11 14 16 14 15 15 19 20 20 21 21 19 16 17 22 13 13 14 15 16 12 13 16 15 16
6 6 7 7 8 9 8 8 8 7 6 4 4 4 4 4 6 9 11 10 10 13 14 16 19 20 21 23 21 20 19 20 23 22 16 19 17 14 18 20 16 18 23 27 33
6 6 4 6 9 8 7 7 8 8 8 6 4 4 4 5 6 9 14 12 11 12 14 16 16 17 19 18 23 17 21 20 20 22 23 19 23 19 14 18 31 34 27 28 34
2 2 3 3 4 5 6 6 6 7 7 6 5 5 5 8 8 13 16 17 14 12 14 15 17 16 17 18 20 23 20 21 21 21 24 23 29 32 33 29 26 25 31 33 35
1 1 1 2 2 3 4 5 5 5 5 5 6 7 9 14 13 19 20 20 16 13 13 17 14 15 14 16 16 17 20 21 23 26 27 25 25 44 53 45 46 41 46 58 71
6 6 4 4 3 3 3 3 4 4 4 6 8 10 19 27 29 29 28 25 22 21 18 17 16 16 12 13 15 16 17 21 22 24 28 31 34 44 46 54 59 68 80 90 84
15 15 12 7 10 8 7 8 9 10 14 19 20 24 26 26 24 24 25 32 34 27 23 20 16 13 18 14 16 17 18 22 27 32 30 37 38 53 67 88 99 98 92 90 70
10 14 17 15 8 8 9 12 13 17 16 21 24 23 20 18 18 21 22 21 38 35 30 22 19 15 16 18 22 23 26 28 31 26 25 38 45 54 55 58 70 80 93 81 80
9 24 31 21 17 13 14 14 17 19 20 21 21 19 16 18 24 30 32 31 34 36 35 26 24 16 21 24 23 28 32 33 34 37 38 42 47 63 61 78 94 82 92 93 79
11 21 32 25 23 22 19 21 25 24 24 23 22 29 27 39 40 38 37 44 38 44 33 26 23 28 32 31 36 40 38 41 45 40 37 36 35 52 81 77 91 94 88 75 72
10 17 24 31 30 31 41 55 54 55 62 61 61 54 48 46 39 39 35 45 37 33 26 25 25 37 42 44 41 41 40 52 55 60 53 53 43 71 92 81 76 77 85 64 84
8 15 22 26 32 38 48 53 61 53 52 60 58 49 42 44 43 47 47 45 40 42 40 38 40 44 46 48 49 52 57 64 64 62 61 77 41 75 84 88 87 86 81 83 89
7 10 15 20 29 37 42 49 57 67 66 61 57 53 44 48 50 55 51 53 46 44 44 43 36 35 52 54 56 54 60 65 71 67 66 82 59 82 92 87 87 82 80 75 72
9 9 11 15 20 24 31 38 46 55 64 68 67 62 59 56 58 57 56 53 62 64 65 64 62 53 54 52 47 47 51 64 63 55 56 65 58 77 82 78 76 70 66 71 66
11 11 13 14 16 20 19 20 25 31 40 48 55 63 65 63 57 54 52 50 47 41 39 39 40 40 42 42 46 52 57 60 58 59 56 55 72 80 78 69 64 71 68 69 75
12 10 12 15 16 19 20 21 22 24 27 24 28 26 28 34 37 38 38 37 38 39 40 36 36 36 38 50 53 55 60 56 57 66 73 69 70 81 71 69 68 78 75 76 77
12 12 12 15 17 18 20 21 23 25 27 29 30 33 34 36 37 39 41 44 47 49 54 60 60 57 53 56 54 55 60 58 59 69 66 64 56 56 71 68 68 79 79 83 82

GFSSW_500_rhum_015.txt.gz
RH
59 66 74 67 45 35 10 1 1 1 1 1 1 1 1 1 2 2 3 5 7 8 9 10 11 11 10 13 19 26 26 14 12 13 14 14 12 4 2 3 3 3 3 3 3
68 64 68 76 34 12 2 1 1 1 1 2 2 2 2 2 2 2 3 5 8 12 12 11 11 13 14 19 24 11 7 4 3 3 2 2 2 4 6 7 6 8 8 9 9
73 86 77 18 7 1 2 1 2 3 3 3 3 3 3 4 3 3 3 3 7 9 11 12 13 15 12 15 6 3 2 3 4 4 4 5 6 7 8 10 9 9 9 9 10
81 36 12 5 1 2 2 2 2 4 4 5 4 5 5 6 6 4 4 5 4 3 4 3 3 3 3 3 4 4 5 5 6 7 8 8 8 8 8 8 8 8 9 10 11
14 11 4 1 2 2 2 2 3 3 4 4 5 6 8 8 8 7 7 8 7 7 7 6 4 3 3 3 3 3 4 4 6 9 10 10 9 10 12 12 12 12 12 10 12
6 2 1 2 3 3 3 3 3 3 4 4 6 7 7 9 9 10 11 11 12 13 11 12 8 8 6 4 4 4 6 8 8 10 11 13 10 9 8 8 9 8 8 8 10
1 1 2 3 4 4 3 3 4 4 5 5 6 6 8 9 10 11 12 14 15 14 15 15 14 13 14 13 12 12 11 11 14 14 14 13 10 9 11 12 13 12 8 7 7
3 4 3 3 3 4 3 3 4 4 5 5 6 7 7 8 10 12 13 13 14 15 16 17 17 17 16 13 14 15 15 14 14 14 12 9 8 6 9 13 11 10 12 11 10
6 6 6 5 4 4 4 4 4 4 5 6 8 8 8 8 8 9 10 11 11 12 14 14 14 16 16 18 17 15 14 13 15 13 14 13 10 8 11 14 10 10 11 11 12
5 5 4 4 4 4 4 5 5 6 6 7 7 8 8 8 9 9 9 9 11 14 16 17 15 16 17 17 16 15 14 11 12 16 12 13 11 12 14 10 10 12 15 14 14
4 3 3 3 3 4 5 6 6 7 6 6 4 4 4 4 5 7 11 11 10 12 15 16 17 18 19 17 16 20 19 18 14 13 18 16 15 16 16 16 17 20 21 23 28
3 3 3 3 4 4 5 5 5 5 4 4 4 4 4 4 6 6 8 13 12 11 13 16 16 16 18 18 17 18 18 17 17 14 12 16 18 18 17 17 17 20 22 28 33
4 4 4 5 6 6 6 7 7 6 6 6 5 5 5 5 7 10 8 14 15 12 12 13 14 14 14 13 14 14 17 18 19 20 16 20 22 22 20 20 22 24 28 32 37
6 6 5 6 8 9 9 9 9 8 7 8 7 6 6 6 6 11 10 16 18 19 14 13 13 13 10 10 11 14 16 16 16 17 19 23 28 28 28 28 28 32 38 42 39
6 6 7 7 8 8 8 8 8 7 6 6 7 7 6 6 6 11 20 24 27 27 23 21 17 16 16 14 12 14 11 15 17 20 22 25 30 31 30 31 33 40 45 40 36
6 6 7 7 6 5 4 4 6 6 6 6 6 6 6 7 9 15 26 25 23 24 27 31 25 22 20 17 10 12 15 21 21 22 24 28 28 27 29 33 38 50 53 40 39
4 5 5 2 2 2 2 3 4 4 4 5 5 6 11 17 16 25 23 19 17 17 21 23 29 30 28 23 18 12 13 18 22 26 28 22 23 23 24 30 48 51 44 42 46
2 2 1 2 2 3 3 3 3 4 5 8 11 16 16 22 26 22 19 15 15 22 28 27 27 29 30 27 22 16 18 25 26 26 24 27 30 32 33 50 54 45 46 49 46
4 6 11 14 14 10 9 10 10 11 11 13 15 17 19 19 18 16 17 32 34 32 33 34 34 32 30 27 22 17 21 26 28 27 25 33 49 41 43 50 50 47 44 46 49
10 12 13 17 21 16 12 12 14 15 17 21 25 29 28 35 38 38 38 38 38 36 35 36 34 30 27 23 21 21 28 29 31 34 30 32 44 47 50 43 41 42 44 52 62
6 8 13 30 26 21 20 20 22 33 39 35 40 46 50 54 45 36 32 36 42 44 45 42 41 35 36 39 40 36 34 35 36 38 39 35 31 42 43 44 48 61 65 63 64
7 8 14 24 28 25 25 30 37 40 41 39 38 35 43 45 42 37 39 46 46 48 50 48 49 48 46 47 52 48 41 39 37 35 36 40 37 62 53 50 54 52 54 55 56
9 8 8 14 21 27 29 33 38 42 43 43 50 57 58 55 52 50 48 51 57 56 52 46 43 42 38 36 37 38 37 35 34 41 47 48 56 54 52 53 48 46 49 42 33
12 11 8 10 16 20 24 30 38 38 35 39 45 46 47 44 41 40 38 35 34 32 32 32 34 32 33 35 43 54 57 58 52 48 47 51 45 52 44 36 32 31 33 32 33
13 13 11 11 12 15 18 19 19 19 19 20 22 23 24 26 26 28 31 42 52 51 46 38 35 38 43 52 55 56 57 56 52 52 47 50 45 41 37 35 36 42 41 42 45
14 15 14 12 12 12 14 15 18 19 19 22 23 24 32 42 47 54 60 58 54 58 66 63 51 46 43 47 46 48 56 58 57 63 55 48 46 47 46 47 51 53 55 57 54
12 14 15 14 13 11 11 14 16 19 20 21 23 34 34 26 30 43 49 62 65 65 70 73 77 69 59 55 58 62 63 60 59 66 57 52 52 52 58 65 69 65 62 62 61

GFSSW_500_rhum_018.txt.gz
RH
96 78 57 41 24 25 24 39 39 24 5 1 1 1 2 2 2 2 2 5 6 7 8 10 12 12 14 19 23 36 37 36 31 24 8 4 3 3 3 4 4 4 4 4 4
61 55 77 78 58 38 38 17 9 1 2 2 1 1 2 2 3 3 6 10 11 12 12 14 13 15 20 26 30 24 18 15 9 3 2 3 5 7 8 8 8 8 8 8 10
62 73 65 67 70 57 16 2 2 2 2 2 2 3 3 3 2 2 4 8 12 12 12 13 14 10 9 9 9 6 4 2 2 4 5 6 8 9 10 9 8 9 10 10 11
72 59 71 91 66 17 3 2 2 2 3 3 3 4 4 4 4 4 2 3 4 5 7 9 8 4 4 4 3 3 4 5 6 7 7 7 7 9 8 10 9 9 10 10 11
84 95 66 31 12 2 2 2 2 3 4 4 5 6 7 7 7 6 6 5 4 3 3 3 3 4 4 4 5 5 5 6 8 9 9 8 9 8 10 10 10 11 10 10 10
55 18 14 9 2 3 3 3 4 4 5 6 7 8 9 10 10 11 10 11 11 10 9 7 5 4 5 5 4 4 6 8 10 11 12 10 12 10 8 8 7 6 7 8 8
13 10 3 2 2 3 3 3 4 4 5 6 6 7 8 9 10 11 12 13 14 15 15 15 14 17 12 10 9 9 10 13 14 14 12 13 12 12 12 11 9 7 8 9 8
2 2 2 3 4 4 4 4 4 5 6 6 7 8 7 8 9 10 12 13 14 15 17 18 20 18 16 16 15 15 12 14 12 13 14 11 13 9 12 14 10 12 11 11 13
2 3 4 4 4 4 4 4 5 5 6 7 8 8 7 8 8 8 9 11 14 14 14 14 14 16 16 17 16 15 14 14 14 13 12 13 11 10 13 12 11 13 13 14 16
3 4 4 4 4 5 5 5 6 6 6 7 7 7 8 9 9 9 9 9 11 15 15 14 14 16 18 19 18 16 14 13 12 13 11 14 15 16 16 16 15 16 16 18 21
5 4 5 6 6 6 6 6 6 7 7 7 6 5 4 5 5 7 12 10 10 11 14 14 15 18 18 16 18 18 16 15 12 12 14 14 13 14 17 17 17 17 17 20 25
7 7 6 5 5 5 5 6 6 6 6 4 4 4 4 5 6 8 7 11 13 11 11 11 13 16 18 18 16 16 19 18 16 14 15 16 15 16 18 18 20 24 28 31 32
5 5 5 5 5 5 5 5 5 6 6 5 6 5 5 5 6 8 10 9 15 15 12 12 13 14 15 14 14 12 13 14 15 14 15 19 20 20 24 27 30 31 33 31 28
5 5 4 4 4 4 5 6 7 7 8 8 7 7 6 6 6 7 12 12 18 19 18 16 12 12 14 14 14 10 8 9 10 14 16 17 17 22 25 26 27 27 26 24 23
4 4 4 5 7 8 9 9 9 9 8 7 7 7 7 6 6 7 12 21 26 26 26 25 22 18 16 14 14 13 12 10 9 14 17 23 21 19 20 23 25 22 21 26 29
5 6 6 6 7 8 9 9 9 9 8 6 6 7 7 7 6 10 12 25 26 23 22 22 24 26 25 19 16 14 14 16 14 19 19 23 22 16 19 20 23 31 33 32 35
6 6 7 7 7 8 8 6 6 6 5 5 6 6 6 9 16 19 20 26 22 18 16 16 20 22 22 24 24 22 17 14 13 16 23 22 19 18 20 24 31 34 33 39 41
6 6 6 6 7 5 2 2 3 3 4 4 4 6 13 17 19 22 23 20 17 13 15 19 22 22 24 25 26 30 26 17 17 18 22 24 25 24 27 35 34 29 35 39 48
4 4 4 5 3 2 2 2 3 3 4 6 10 13 16 18 18 18 16 14 25 31 32 32 29 30 30 30 29 29 24 21 21 23 24 27 32 27 35 32 30 34 40 47 46
3 3 2 2 5 9 12 10 9 10 11 13 16 21 28 33 38 42 39 36 33 31 32 34 32 32 31 28 26 27 26 24 23 25 22 25 36 42 34 34 38 48 45 43 43
4 8 13 16 16 21 18 14 13 16 21 28 34 32 36 45 48 44 35 29 25 30 35 41 43 38 41 35 31 34 32 32 32 33 32 29 32 51 49 48 49 48 44 38 33
6 7 9 13 30 28 21 20 23 25 35 38 37 36 31 34 38 35 31 28 29 36 40 45 46 46 43 38 38 38 35 34 31 30 34 44 42 54 52 50 50 44 38 35 35
7 8 9 14 25 29 26 27 32 35 39 42 44 47 50 50 49 48 48 46 43 37 32 32 30 30 30 29 30 31 33 42 44 42 46 47 56 52 50 44 44 43 44 45 49
8 10 9 10 15 18 23 27 29 34 39 39 40 41 38 29 23 23 25 30 34 36 38 43 51 51 44 38 34 37 46 52 50 45 50 54 47 55 49 50 54 54 52 50 46
12 12 12 11 9 12 15 19 21 23 23 22 20 18 20 22 26 41 38 43 52 55 57 58 57 56 56 60 55 51 49 52 51 52 52 57 51 58 58 55 51 49 50 44 41
12 14 13 12 10 11 13 14 16 18 17 18 19 20 21 25 37 28 29 30 29 27 27 52 60 58 58 70 70 67 59 65 64 66 63 60 62 58 51 46 46 48 45 46 44
11 13 15 15 14 11 12 13 15 17 17 18 20 20 20 19 23 22 24 25 24 42 48 55 63 62 63 64 65 62 63 73 70 71 69 60 56 50 52 54 59 54 55 54 51

GFSSW_500_rhum_024.txt.gz
RH
50 49 37 31 34 27 27 26 25 31 38 32 28 7 2 3 2 3 3 3 2 3 5 8 9 10 10 18 23 30 21 21 21 19 8 4 3 4 4 5 5 5 5 5 5
52 53 48 55 54 41 25 24 27 38 41 19 3 4 4 5 8 5 4 4 8 8 12 14 18 24 23 23 21 20 24 20 12 4 3 4 5 6 7 8 8 7 5 6 7
43 75 64 62 55 37 31 32 34 41 16 6 6 7 6 8 8 10 8 9 12 13 16 18 24 25 32 28 20 16 14 6 4 3 6 7 7 8 8 9 8 8 8 7 7
72 81 84 61 48 56 40 34 55 31 6 6 6 6 6 8 10 11 11 13 17 17 16 20 25 29 26 18 15 11 4 3 3 5 6 6 7 8 8 8 7 7 7 6 6
56 66 66 61 62 48 51 57 25 6 5 5 4 4 4 4 5 9 10 11 13 15 15 13 11 11 8 4 5 4 4 4 6 6 8 9 10 10 11 10 10 9 7 7 7
64 80 78 76 87 68 74 12 5 5 5 7 8 8 8 9 8 7 5 4 5 5 5 4 4 5 5 5 5 6 7 8 9 9 10 10 9 9 9 9 9 9 10 9 9
74 77 78 86 71 45 8 5 5 7 9 11 11 12 13 15 14 13 11 8 6 5 6 6 6 7 6 6 7 7 8 10 11 11 10 11 9 10 9 8 8 9 10 9 8
63 54 32 35 12 7 6 9 10 12 12 12 11 12 13 14 14 14 15 14 13 14 15 14 12 11 11 11 11 11 10 9 10 10 10 11 11 14 13 10 9 11 12 14 14
17 14 12 7 6 6 9 11 12 12 10 10 11 11 11 11 10 11 12 13 13 14 13 13 13 15 14 14 11 10 13 12 11 11 12 10 11 14 17 14 14 15 17 17 18
10 5 5 5 6 9 10 10 11 9 10 10 8 8 9 9 9 9 10 11 12 13 13 14 15 16 17 15 18 18 19 18 16 14 14 12 11 12 11 14 15 18 20 22 24
3 4 5 6 8 8 9 10 9 10 8 9 9 9 8 8 10 11 11 10 11 13 14 15 16 15 15 16 17 17 17 15 15 16 13 12 14 15 16 16 20 24 26 28 33
4 4 6 8 8 9 11 10 10 10 8 6 5 5 6 7 8 9 8 11 12 11 12 13 14 14 13 13 14 14 14 16 16 17 17 17 17 17 19 19 20 21 27 31 32
4 5 7 7 9 10 10 11 10 9 7 5 5 6 6 6 6 7 10 10 11 15 13 11 13 14 13 13 11 11 10 10 10 10 13 14 14 16 17 18 20 24 27 30 33
5 6 6 8 9 10 11 9 8 7 6 6 7 8 8 7 7 7 6 8 11 15 16 16 14 12 11 11 10 9 10 10 11 12 10 10 13 14 16 18 21 25 25 25 27
5 6 8 9 9 9 9 8 8 8 8 7 8 8 8 8 7 6 6 5 9 14 18 20 22 24 22 20 18 18 17 14 13 13 13 12 18 11 16 22 24 26 25 25 24
8 9 8 8 8 8 8 8 8 9 8 8 8 7 6 6 6 5 6 6 8 12 21 24 22 20 18 18 20 20 20 20 20 20 21 16 18 11 21 26 27 27 26 25 31
8 7 7 7 6 6 7 8 9 8 8 7 7 6 5 4 4 6 10 13 15 17 20 20 17 13 12 12 13 18 22 22 22 24 27 25 21 16 25 29 29 26 24 32 36
7 7 7 6 6 7 8 8 9 8 8 7 6 4 3 4 7 12 12 13 16 17 16 14 24 24 26 25 26 26 27 27 27 27 27 28 25 24 29 31 30 29 32 38 47
6 6 5 6 7 8 8 8 8 8 7 5 2 3 4 9 15 19 19 17 14 15 24 22 24 25 25 24 27 33 29 33 32 29 28 30 28 30 37 35 34 36 45 49 52
6 5 5 6 6 7 8 8 7 5 2 4 4 8 12 18 22 28 34 35 29 25 22 22 23 28 34 37 39 40 37 36 37 34 33 33 32 36 40 45 44 46 52 52 49
5 5 6 6 7 7 6 5 3 5 12 10 13 21 24 23 22 31 36 32 27 26 30 34 32 28 25 28 28 28 29 29 30 31 30 26 30 44 43 43 43 45 54 58 57
4 5 5 6 6 4 3 3 13 16 14 17 28 30 29 30 26 28 32 33 35 30 24 29 32 33 34 36 40 47 49 46 46 43 45 46 37 44 44 47 49 53 59 58 53
4 4 5 5 4 4 12 18 22 18 18 25 30 30 31 33 35 35 31 20 21 26 29 33 36 40 40 40 42 46 46 51 53 51 54 50 56 54 58 54 60 67 62 60 60
3 4 4 3 6 10 13 26 21 21 26 27 28 28 24 22 19 16 15 19 22 18 25 32 36 42 48 50 49 47 52 55 53 56 67 65 61 69 64 67 73 68 69 68 62
2 3 4 6 6 9 16 23 25 25 24 20 22 22 14 13 13 14 16 22 17 16 15 16 28 35 41 47 52 50 55 52 56 67 62 72 70 77 69 75 75 73 73 61 52
3 5 6 8 8 9 12 14 16 16 15 16 15 13 12 12 12 14 13 12 12 12 12 15 23 28 35 44 50 48 55 56 59 68 75 82 84 86 87 84 76 66 54 47 46
6 7 8 9 11 10 9 10 10 11 12 11 11 10 10 11 11 12 12 11 11 12 19 21 25 38 42 44 44 51 49 50 63 78 81 92 93 83 80 70 63 52 49 51 50

GFSSW_500_rhum_027.txt.gz
RH
28 21 51 60 53 44 34 41 35 30 30 35 40 36 33 16 4 2 2 3 4 4 4 5 5 4 5 5 5 9 49 67 58 35 18 8 5 3 4 3 3 3 3 4 5
19 34 50 56 33 34 30 34 28 27 28 38 37 31 8 7 4 4 6 6 8 8 8 8 8 9 16 19 17 58 58 56 23 12 4 4 4 5 5 5 5 4 5 5 5
46 58 55 46 32 36 31 28 25 25 31 39 33 11 10 9 11 9 9 10 11 11 12 14 21 17 32 25 23 48 63 18 9 3 4 6 7 7 6 6 6 6 6 6 6
38 36 68 57 38 47 42 31 31 39 46 52 12 11 12 13 16 15 14 14 15 14 23 29 31 39 31 20 18 21 9 4 3 5 7 8 8 7 8 7 7 6 6 5 5
55 66 71 65 59 60 51 39 51 44 40 12 12 13 13 18 16 16 13 17 18 18 20 22 23 19 26 11 8 4 3 3 4 6 7 7 8 8 7 7 8 7 6 7 7
68 72 94 64 63 54 45 63 44 27 10 10 9 8 13 15 13 12 12 13 13 15 12 8 5 4 4 4 4 3 4 5 6 6 6 7 9 10 9 8 8 8 8 7 8
62 72 66 63 60 48 62 58 14 7 5 5 6 7 7 7 6 5 6 6 5 4 4 4 4 6 5 6 6 7 8 9 10 10 11 12 11 12 9 8 9 8 9 12 12
74 78 83 91 62 72 25 10 7 8 10 11 13 14 16 15 14 12 9 6 6 6 7 8 9 10 11 14 13 12 12 30 12 12 12 14 89 10 8 7 7 11 12 15 15
80 81 93 70 62 20 6 8 11 14 15 15 16 16 17 16 16 16 16 15 16 15 14 12 11 13 12 13 14 16 78 41 16 11 11 11 75 7 10 9 11 15 17 17 18
69 60 34 47 10 6 8 13 16 16 15 15 13 14 14 14 14 14 15 15 15 15 15 15 15 16 16 42 70 63 40 20 19 11 11 13 12 11 12 14 16 16 18 20 22
16 14 11 5 7 10 14 16 15 14 12 10 11 9 10 10 10 11 12 14 14 14 15 16 21 78 19 18 19 19 18 18 18 17 16 13 11 12 13 13 14 16 20 24 27
7 6 4 8 10 14 14 11 13 12 12 10 9 7 7 8 8 9 11 11 11 13 14 16 17 17 17 16 16 16 16 15 16 16 17 17 16 17 16 17 17 19 20 23 27
5 5 7 9 12 14 14 14 12 13 10 6 6 6 7 7 8 9 11 9 12 12 11 13 13 15 15 16 16 14 13 12 12 11 12 12 12 12 14 15 17 18 22 25 26
4 7 9 10 12 13 12 12 10 8 6 5 6 7 7 7 7 6 5 6 10 12 16 16 13 12 12 12 12 12 14 13 14 14 52 13 80 40 15 12 16 20 25 26 26
6 8 8 9 11 13 12 10 7 6 7 7 8 9 9 8 7 6 6 5 6 13 17 19 20 21 22 21 22 20 20 20 20 20 20 20 18 87 33 20 18 25 30 32 34
7 7 8 11 12 11 9 8 8 9 10 9 10 9 7 6 6 6 5 6 6 9 15 20 25 24 22 19 17 16 18 20 21 22 24 41 26 94 75 26 24 29 35 38 37
6 7 9 11 10 9 8 8 9 9 9 9 8 8 6 4 4 4 6 10 13 16 17 20 20 17 14 15 14 14 16 24 25 26 62 45 31 60 28 29 31 34 35 32 32
6 9 10 9 9 8 8 9 9 9 8 8 7 6 4 3 3 5 12 13 13 16 18 17 16 24 25 25 24 24 27 27 31 36 64 29 35 51 35 40 38 34 35 37 42
9 9 8 8 8 7 8 8 9 9 9 9 8 4 3 4 8 14 18 18 16 14 16 26 23 22 22 25 31 34 36 37 37 33 32 38 37 38 35 36 38 38 39 44 48
9 8 8 8 7 7 8 8 8 8 8 6 3 4 6 11 18 23 27 30 29 26 22 20 25 31 31 28 29 30 30 31 30 30 30 80 80 100 48 38 37 40 43 44 50
7 8 7 7 7 7 7 7 8 7 4 5 10 11 17 21 22 23 32 29 24 22 26 27 26 30 33 35 36 36 36 41 44 47 47 42 48 49 50 50 49 48 56 58 60
8 8 6 6 6 6 7 7 6 3 7 14 14 27 27 26 22 21 23 23 26 26 25 29 33 33 36 39 40 41 42 42 43 46 43 49 43 49 58 60 62 62 60 62 68
6 5 5 5 6 6 6 5 3 9 17 15 21 28 28 29 28 28 27 23 17 24 23 27 24 22 29 30 30 35 42 45 47 46 48 50 55 65 71 62 59 59 57 68 68
4 4 4 4 5 5 4 4 13 22 19 18 25 27 25 20 17 17 15 14 20 20 15 15 13 18 28 32 36 38 43 41 42 49 51 55 70 69 96 92 79 86 85 82 74
4 4 4 4 4 4 4 12 18 22 19 23 24 22 23 15 12 10 11 13 17 13 12 12 21 27 29 37 42 40 40 42 51 59 55 57 65 89 91 87 97 88 81 73 65
3 4 3 4 4 4 8 9 20 23 20 22 19 19 15 11 9 9 11 11 11 11 13 14 21 30 38 44 34 34 39 48 52 61 57 66 78 88 92 94 85 81 70 62 58
3 3 4 3 4 7 8 10 14 15 17 15 14 12 10 9 8 9 10 10 11 12 14 14 17 28 36 30 29 32 38 50 57 63 64 67 81 85 85 73 68 56 57 58 51

GFSSW_500_rhum_030.txt.gz
RH
48 37 29 23 42 47 44 41 38 37 48 41 42 46 40 39 37 35 21 7 22 56 4 4 3 3 4 8 20 52 98 98 90 90 46 19 12 6 3 2 3 3 3 4 4
40 30 16 16 48 46 44 42 35 41 41 36 38 42 42 35 17 7 5 6 8 9 7 8 7 9 17 29 57 64 64 70 66 52 20 8 4 4 4 3 3 3 4 5 6
38 40 46 47 48 31 36 37 32 36 30 30 37 47 34 14 10 9 9 11 10 9 10 6 13 20 32 41 62 73 66 63 47 29 4 4 4 5 5 3 4 4 5 6 6
42 45 40 47 46 28 31 41 35 27 27 39 49 26 30 14 12 17 14 15 18 25 25 21 32 48 82 77 71 72 70 60 20 5 3 5 6 6 6 6 6 7 7 7 6
43 55 53 55 54 31 36 54 33 27 39 63 37 21 21 15 13 16 15 16 21 26 27 36 62 86 83 75 43 26 30 13 4 5 6 6 6 7 6 7 8 7 6 7 7
50 53 56 57 63 57 65 52 32 48 54 51 17 16 17 20 20 18 18 17 17 36 25 33 94 84 60 54 49 5 4 3 5 6 6 7 7 8 8 8 7 8 7 7 7
33 63 72 77 65 66 45 36 43 39 33 12 16 18 17 13 17 16 17 15 14 12 10 6 7 23 32 11 5 4 5 6 6 6 7 8 8 13 8 9 8 10 9 9 11
69 78 89 81 59 42 63 66 24 11 12 13 14 14 12 9 9 9 9 8 5 4 4 4 5 4 6 6 6 7 9 22 18 11 10 13 48 24 10 13 11 10 13 20 16
82 76 62 60 42 66 54 35 12 8 7 8 9 9 10 10 8 5 5 4 5 6 7 8 8 7 8 11 14 17 87 86 47 14 13 13 84 83 16 12 15 20 19 16 21
80 82 75 93 76 56 28 7 6 10 12 14 16 16 17 20 18 18 17 16 15 15 12 11 11 15 15 51 98 96 69 70 32 12 12 14 34 14 16 14 16 19 21 15 17
94 81 95 73 55 12 7 8 11 13 16 17 18 15 18 18 18 18 17 17 16 17 17 18 24 98 92 29 42 58 34 40 43 12 16 15 20 10 17 14 13 13 17 19 18
63 87 48 41 11 7 11 15 17 18 18 16 14 11 11 11 11 12 13 14 15 16 17 22 46 46 64 24 22 37 26 34 17 17 18 18 25 13 19 17 15 13 14 19 22
24 21 13 6 7 12 15 17 16 17 15 11 9 8 8 9 10 10 10 12 12 12 14 31 28 18 19 20 22 22 20 16 18 13 15 17 30 11 12 15 16 10 10 16 20
13 10 6 7 13 17 18 15 16 16 10 7 7 8 7 7 7 6 6 10 10 14 15 14 13 13 14 14 14 14 12 12 13 15 24 34 41 78 27 29 24 20 16 22 24
8 7 9 12 15 16 16 16 12 9 7 7 9 9 8 8 7 6 6 5 7 14 16 15 18 18 15 15 18 16 20 20 21 21 24 29 30 90 54 34 28 37 37 29 32
6 10 11 14 16 16 15 12 8 22 8 9 9 9 8 6 6 5 5 5 6 6 7 13 18 23 24 22 21 19 16 15 14 16 19 28 57 99 98 88 37 40 35 32 38
8 10 11 15 14 15 12 9 8 14 9 10 9 8 7 5 4 4 4 7 11 13 13 15 16 18 17 16 20 22 22 24 44 78 88 99 88 96 73 100 77 46 40 40 41
8 9 12 14 15 11 9 9 9 10 11 10 9 8 6 4 3 4 6 13 13 15 17 17 14 19 25 24 24 25 30 29 31 40 46 44 59 62 58 90 99 63 48 44 45
8 9 12 13 12 10 9 10 10 10 10 9 9 8 5 3 4 10 15 18 17 16 14 17 23 20 23 30 30 30 30 31 30 31 31 34 57 93 95 98 79 66 61 41 41
7 9 12 13 11 9 10 10 8 9 9 9 8 4 4 6 12 19 23 23 19 21 24 21 24 30 28 31 36 35 36 37 36 36 37 59 89 95 87 64 69 67 59 49 50
7 10 12 12 11 9 9 9 9 8 8 7 4 6 9 15 22 23 28 30 28 22 21 28 28 33 35 36 36 32 32 33 36 43 42 43 53 63 66 78 76 78 69 61 63
8 10 11 10 10 9 9 7 7 7 7 4 8 12 24 27 24 19 22 24 23 24 22 28 32 24 23 30 31 33 35 35 33 35 41 46 40 53 57 70 81 86 81 73 81
9 10 10 9 8 8 7 7 7 7 4 5 14 23 30 29 30 29 30 28 26 18 25 22 18 14 26 28 30 30 28 30 29 28 39 40 51 68 87 90 98 75 67 88 85
10 9 8 8 6 6 6 6 6 5 5 18 15 26 30 29 27 24 19 15 13 18 18 12 12 19 26 32 33 31 28 29 33 35 36 47 53 65 88 84 82 82 99 100 100
9 8 7 6 6 5 5 5 5 5 18 21 19 28 31 29 20 14 11 11 11 14 13 12 13 15 20 26 28 28 26 29 35 44 53 56 58 74 69 95 80 78 90 81 64
8 7 6 5 4 4 4 5 5 12 24 20 24 26 25 25 15 10 9 9 10 11 11 13 14 16 17 20 24 25 24 28 31 40 49 57 67 75 80 60 64 61 64 57 58
6 5 4 4 4 4 5 5 9 12 26 24 25 23 14 18 13 9 9 10 10 11 12 14 16 18 18 19 20 23 23 26 34 45 54 58 68 58 50 54 61 54 63 61 53

GFSSW_500_rhum_033.txt.gz
RH
23 46 45 45 33 33 39 34 36 39 27 50 66 54 47 47 42 39 35 27 10 12 37 21 20 10 54 93 99 75 74 92 85 99 97 94 52 12 9 3 2 4 4 4 4
20 40 43 46 28 17 40 46 47 45 36 44 50 44 49 45 38 34 20 10 11 51 40 7 7 18 84 96 94 89 93 95 94 93 73 47 15 8 3 3 3 3 3 4 4
31 38 40 39 37 28 48 49 54 46 35 43 42 39 43 39 36 14 13 9 13 22 11 8 10 40 77 79 68 70 74 81 94 75 40 10 4 4 4 3 3 3 4 5 5
39 40 39 43 41 48 46 37 41 37 36 36 34 38 46 37 18 13 14 12 13 14 14 18 22 38 68 68 77 70 73 68 70 64 17 3 5 4 4 5 5 5 6 6 5
42 40 41 50 49 50 36 32 43 35 32 36 41 48 30 23 16 15 16 16 18 37 62 50 40 52 59 71 72 41 42 67 64 32 5 6 7 6 7 6 6 6 6 6 6
46 46 43 48 52 48 36 42 50 35 49 53 51 18 51 19 21 20 19 20 18 30 45 33 77 94 97 82 23 25 22 15 8 6 7 8 8 7 7 7 6 6 6 5 6
45 46 49 50 54 57 49 51 42 37 61 55 34 18 17 21 19 18 19 20 12 20 16 14 80 89 64 23 4 4 4 4 6 8 9 9 10 6 8 8 8 8 5 5 6
77 54 41 59 69 64 60 43 40 60 35 24 20 20 21 21 21 20 18 16 19 10 10 19 36 12 7 7 7 9 10 13 22 13 14 10 7 7 10 12 8 9 9 8 7
73 76 82 90 70 57 47 67 52 24 20 20 19 19 18 19 16 17 13 6 6 6 6 6 8 8 13 34 50 90 96 62 35 17 12 10 6 5 8 10 12 14 9 12 12
72 73 77 66 54 57 74 49 16 17 18 18 17 13 9 8 8 7 6 7 8 13 17 20 26 34 72 59 73 71 89 92 61 22 13 13 12 7 9 15 14 12 16 9 13
94 73 68 65 82 48 36 13 12 12 12 11 11 11 12 12 12 13 16 18 17 16 20 30 18 19 20 28 90 77 76 64 11 12 16 16 17 11 10 15 18 19 19 22 24
88 71 82 98 64 32 16 8 10 12 13 13 17 19 20 21 21 20 19 19 21 21 22 25 22 28 49 42 54 77 63 31 12 15 18 18 20 18 16 19 16 19 24 25 27
90 91 89 62 27 11 8 10 13 16 19 18 17 15 14 13 14 14 14 16 17 19 18 17 34 29 20 19 21 20 30 29 20 14 18 19 17 20 15 19 44 40 42 34 38
62 78 40 28 11 9 10 14 17 20 18 13 10 9 10 11 10 10 10 11 12 12 9 14 15 15 17 17 18 17 17 18 15 15 17 18 27 24 20 22 17 19 28 39 50
51 30 18 10 9 13 19 19 17 16 11 9 9 8 8 9 7 7 7 8 8 10 12 15 17 17 16 20 18 19 22 20 21 22 21 25 26 30 43 46 20 54 67 56 56
19 14 8 9 13 18 18 18 14 14 8 9 9 10 8 7 6 6 5 5 7 6 9 20 23 24 23 24 22 20 17 17 15 14 13 14 25 39 66 45 76 88 82 95 64
12 7 8 13 18 18 17 16 15 40 8 10 10 8 7 5 4 4 4 5 8 10 10 11 15 16 16 14 16 19 21 20 20 27 35 63 88 90 96 99 71 49 60 56 72
9 8 12 18 18 17 16 11 32 16 9 10 9 8 8 6 4 4 4 11 14 13 13 12 15 17 23 20 19 20 23 25 28 28 28 40 37 37 39 64 73 89 86 92 72
9 12 16 17 17 17 12 9 12 10 12 10 10 10 9 5 4 5 11 17 17 16 17 13 20 19 22 26 26 29 32 34 36 38 39 41 37 36 78 96 98 100 99 98 70
11 13 16 17 16 14 10 7 10 9 11 10 10 8 5 4 6 14 20 22 21 18 18 23 23 27 26 33 35 32 31 30 30 27 28 40 59 64 61 66 72 65 66 67 89
11 12 15 16 14 11 10 9 10 11 10 10 8 5 8 8 14 21 23 28 27 25 20 24 26 30 28 31 29 28 29 26 26 26 28 26 33 45 58 63 69 76 71 66 76
10 11 14 14 12 11 11 9 10 12 8 8 6 5 11 18 22 18 27 34 24 20 26 24 30 28 18 27 29 31 29 25 23 28 36 36 42 47 61 67 83 99 100 100 100
9 10 12 13 12 12 9 8 10 9 7 7 4 11 21 28 26 24 22 22 23 25 22 24 23 14 19 23 25 25 24 23 21 22 23 32 56 66 55 58 68 76 81 83 100
8 8 11 13 12 11 8 9 8 7 6 5 8 14 27 30 28 31 24 23 21 16 18 16 12 13 17 20 23 22 23 23 22 23 23 35 36 53 50 55 60 64 78 72 76
8 8 10 11 9 9 8 8 7 6 6 5 18 17 27 30 26 21 16 14 12 11 14 14 12 14 15 16 20 21 20 21 22 21 22 30 47 45 46 57 65 74 70 68 63
6 10 10 10 10 9 8 6 5 5 5 9 23 18 27 24 17 15 14 11 11 11 10 11 14 14 16 18 18 19 19 21 20 20 22 26 50 43 53 60 64 63 57 60 61
6 11 10 9 8 7 6 5 5 5 8 18 24 19 24 28 28 16 11 9 10 10 11 12 13 16 17 18 19 18 20 21 22 22 23 23 35 52 59 59 58 60 61 60 58

GFSSW_500_rhum_036.txt.gz
RH
17 17 17 27 39 41 43 28 38 27 24 23 30 61 62 70 57 52 44 36 33 50 74 42 88 24 40 75 88 96 92 91 86 91 96 84 90 91 78 27 6 6 3 3 3
15 9 8 25 41 46 40 22 31 36 36 27 32 63 69 51 48 43 39 29 14 19 23 55 91 91 78 88 83 98 86 68 84 97 97 95 79 87 36 7 3 4 3 4 4
13 9 17 32 39 40 38 25 42 50 44 42 36 49 51 44 46 38 24 15 12 14 20 26 80 96 96 97 96 83 98 95 90 85 88 73 34 39 8 3 4 3 4 4 5
12 26 36 40 41 40 42 51 55 54 45 42 36 44 40 37 40 29 15 16 25 77 32 68 100 90 83 90 85 78 75 72 74 94 77 62 5 4 4 4 4 4 5 5 5
29 37 40 40 39 48 46 53 37 38 40 37 41 37 33 41 30 19 16 16 21 24 84 95 97 87 92 88 80 76 76 73 73 74 67 13 5 6 8 6 6 6 6 5 4
38 41 46 44 42 50 54 41 33 43 36 33 34 32 44 25 20 18 17 16 22 28 74 84 92 84 79 75 73 63 70 68 66 63 11 8 7 6 6 6 7 7 7 6 5
40 42 46 49 46 54 52 36 51 50 35 41 46 44 35 31 23 16 15 22 19 18 28 41 54 65 67 60 47 38 14 14 12 8 10 12 7 7 7 6 6 6 5 5 6
46 66 68 45 50 53 52 40 49 41 44 60 52 23 27 24 24 16 14 17 16 19 22 31 40 54 21 7 5 6 7 17 13 12 12 10 7 15 10 10 7 5 4 5 5
60 72 61 41 45 63 55 53 46 44 61 49 26 25 24 26 23 17 18 17 24 37 38 30 17 18 17 60 70 22 21 19 19 23 14 7 8 6 16 8 6 5 6 7 10
60 65 69 79 77 63 64 58 55 61 33 23 26 26 26 26 25 21 18 20 24 27 19 29 45 65 40 53 76 83 53 25 31 39 27 12 12 8 6 11 13 12 14 15 15
39 68 76 93 70 64 64 72 50 22 25 28 24 22 23 22 19 15 12 10 11 15 47 57 61 34 60 96 88 84 54 31 45 33 40 36 14 12 9 14 20 25 21 21 21
41 72 82 70 66 75 76 30 20 19 20 20 15 13 11 11 10 9 10 13 16 22 31 33 33 43 48 73 93 81 85 39 17 27 28 22 21 18 17 15 14 16 23 34 54
59 75 70 71 78 58 22 18 19 17 15 14 14 13 14 18 20 22 22 22 24 22 20 22 43 41 40 34 65 81 66 44 44 34 28 16 14 13 12 12 13 28 55 62 78
76 86 98 80 60 25 17 14 14 15 20 20 21 20 18 16 16 16 17 18 18 19 20 21 28 24 20 24 21 22 33 51 33 20 17 19 18 14 13 13 13 18 42 95 100
49 82 81 82 24 17 13 14 16 19 23 18 13 11 10 10 11 11 11 13 14 14 17 16 17 14 15 18 17 15 14 15 18 20 19 24 21 20 17 15 17 24 70 100 98
48 78 81 26 16 13 14 16 18 18 14 11 10 10 10 10 10 10 10 10 11 13 15 17 19 20 22 22 23 22 21 19 16 15 13 13 15 18 34 43 54 40 87 99 96
61 59 28 16 15 16 20 19 16 16 9 10 10 10 10 9 8 7 6 6 7 9 10 12 14 15 15 13 12 13 17 18 18 19 32 45 51 73 83 77 81 57 55 36 49
45 26 16 14 16 21 20 18 14 18 9 10 11 9 8 7 5 4 4 5 7 11 11 10 11 12 12 16 17 20 25 26 27 30 32 29 28 30 36 37 35 73 73 60 69
19 16 15 17 20 20 18 15 26 9 10 11 9 10 9 7 4 4 5 10 13 13 13 16 20 17 18 24 27 31 32 31 30 29 27 26 28 30 32 34 57 90 98 98 95
15 16 14 19 19 17 17 20 31 9 10 10 10 9 8 5 4 5 12 16 17 17 14 18 20 24 26 33 33 29 30 26 23 22 24 26 27 30 34 32 38 40 47 55 62
12 14 16 19 18 16 14 13 15 12 11 10 9 8 5 6 7 13 21 23 21 19 18 20 25 29 30 28 30 31 28 23 21 21 21 20 24 28 31 36 36 38 44 50 62
13 14 18 18 16 16 10 8 10 12 11 9 8 5 8 12 18 27 27 28 25 22 22 27 23 29 19 27 28 26 24 22 21 20 21 20 24 22 29 30 38 51 59 73 100
13 15 17 16 16 16 9 9 11 11 10 8 7 5 12 22 25 24 25 31 26 22 25 24 27 30 14 21 23 24 23 22 18 17 18 19 20 18 22 41 50 60 65 74 85
13 14 16 15 17 16 8 9 11 12 10 8 6 5 13 28 30 25 24 23 23 22 26 22 22 17 13 16 17 18 21 20 19 19 20 20 20 20 25 43 51 60 69 73 68
12 13 14 15 15 12 8 9 10 11 8 6 5 7 16 28 30 30 30 28 25 25 20 20 17 13 13 15 17 18 19 19 19 20 21 22 23 23 25 40 47 54 60 62 62
11 11 12 14 14 13 9 10 10 8 6 6 5 13 20 22 31 32 26 24 20 19 16 20 19 16 15 15 17 18 18 19 19 20 21 21 23 24 23 32 47 65 69 71 70
10 12 10 12 12 12 12 11 10 7 5 5 5 18 22 20 34 38 39 19 15 12 13 12 12 12 13 15 17 18 18 19 19 20 21 22 23 27 29 43 58 67 74 76 76

GFSSW_500_rhum_039.txt.gz
RH
45 47 46 18 15 16 38 39 44 34 37 21 19 29 50 56 73 74 62 55 44 40 40 42 36 54 95 97 61 81 83 93 83 96 86 97 90 93 93 91 73 35 7 6 3
47 48 43 16 9 9 37 46 45 35 26 29 24 24 51 58 74 57 53 45 38 31 69 72 43 58 63 95 68 93 92 82 95 94 96 93 88 61 54 63 38 3 5 3 4
44 50 26 13 10 22 35 41 39 37 25 36 33 29 53 68 56 54 46 38 27 17 86 59 77 49 68 96 95 98 97 89 93 88 97 88 68 34 21 23 4 4 4 4 5
50 46 18 15 34 38 41 42 45 33 43 44 42 37 50 53 50 47 37 20 17 19 30 79 93 76 66 98 96 97 96 96 92 88 70 78 57 7 5 4 4 3 4 5 6
50 28 18 36 40 41 39 50 50 48 47 46 43 37 49 42 51 40 24 19 17 20 25 71 98 96 96 98 95 92 85 88 77 93 96 76 30 7 5 7 6 5 5 6 5
50 16 31 42 45 43 43 50 48 32 38 38 39 44 42 46 48 34 20 18 27 54 68 57 96 96 95 90 88 76 79 72 69 73 70 32 8 10 10 10 8 6 5 5 5
37 18 39 41 47 47 43 52 29 33 46 41 38 36 41 47 34 26 19 18 38 62 92 100 92 91 90 83 71 38 73 57 53 63 24 8 8 8 8 7 7 6 5 4 5
17 37 46 52 62 49 49 50 38 50 44 37 37 56 45 34 25 23 18 20 26 64 88 97 96 87 83 74 41 20 33 32 19 7 8 8 10 9 8 6 5 4 5 7 8
27 45 60 66 55 48 52 49 44 45 41 44 60 35 27 35 28 22 16 20 34 56 87 91 93 85 73 57 10 8 20 15 15 17 14 11 12 9 9 7 7 8 7 7 6
39 50 62 71 43 46 53 50 44 37 49 63 51 28 32 31 25 21 17 26 32 55 61 66 56 68 48 9 9 14 14 22 24 23 10 9 9 7 8 10 9 8 7 6 7
47 49 53 69 72 60 62 52 54 52 56 35 30 30 34 25 24 24 22 37 48 63 46 38 34 16 39 64 51 26 21 40 24 24 20 10 7 9 9 10 14 15 12 16 18
49 41 53 74 80 67 60 67 60 44 29 25 28 34 28 26 24 28 32 35 41 34 38 19 21 20 59 75 60 60 36 23 27 37 24 22 18 12 13 13 13 20 28 30 44
46 36 70 87 80 66 64 71 45 25 24 27 26 23 23 20 19 18 15 14 16 25 20 20 31 62 97 85 76 72 50 44 43 40 29 22 15 14 14 15 23 25 28 60 63
38 52 75 74 67 69 75 31 26 28 24 18 14 13 11 11 11 11 13 14 17 18 22 19 21 27 33 36 63 53 53 55 51 39 42 31 16 13 15 20 22 25 24 41 52
38 65 68 65 66 76 24 23 23 19 18 14 17 22 23 23 23 23 23 22 21 22 21 24 31 30 36 24 23 23 24 24 21 18 18 19 21 17 19 19 23 38 49 54 78
56 66 67 70 87 28 20 18 18 20 21 23 23 18 16 15 15 16 16 17 18 19 22 27 26 26 17 16 17 21 22 23 23 22 21 19 17 13 15 24 65 78 88 97 97
58 52 85 92 34 19 17 18 21 22 19 16 12 11 11 11 12 11 11 11 12 14 24 25 20 20 21 24 25 24 19 18 20 21 20 18 21 23 26 30 41 37 36 38 46
55 57 89 44 18 18 19 22 21 20 12 12 11 11 11 10 10 9 10 10 12 12 18 18 17 17 16 14 16 19 21 24 24 26 28 28 24 21 20 21 22 25 31 34 38
44 51 68 20 19 17 25 21 17 13 10 10 11 11 10 8 8 6 6 6 7 8 13 17 14 13 15 20 23 26 30 30 28 24 21 21 19 18 20 23 27 31 33 34 36
59 28 24 18 19 23 24 18 15 12 10 12 12 10 9 8 7 5 4 4 7 12 15 17 18 17 22 26 32 30 28 26 22 20 20 18 17 15 14 14 20 29 37 42 51
50 26 17 24 22 23 20 15 14 10 11 11 10 10 10 8 5 4 5 12 14 17 15 15 18 24 29 32 30 30 30 23 20 18 18 17 17 17 18 16 14 16 17 25 38
27 20 16 24 20 20 16 13 38 12 11 10 10 9 5 6 6 11 18 21 22 21 17 18 23 27 31 29 30 30 26 23 20 18 18 19 18 18 20 19 16 14 15 18 26
21 16 18 20 19 17 13 24 24 13 12 10 9 8 6 11 18 23 24 27 21 20 18 19 23 28 22 22 26 26 25 23 21 19 19 19 19 19 21 21 20 18 19 25 31
18 14 18 19 20 16 14 15 18 15 13 10 9 6 7 17 25 27 24 32 28 23 20 23 23 28 28 16 16 17 17 17 19 18 18 20 19 19 21 23 23 20 23 34 45
13 14 15 17 18 16 13 10 10 12 12 11 8 6 6 17 30 28 26 27 29 25 22 26 22 23 18 14 13 14 16 18 18 18 18 19 20 20 20 22 23 22 23 33 51
13 15 17 18 19 15 10 9 11 13 12 11 8 5 7 17 32 33 33 32 32 32 30 27 21 22 16 15 15 15 16 18 18 18 18 18 18 20 21 22 24 24 24 35 52
12 17 17 18 17 14 9 10 11 12 11 10 6 6 10 20 21 35 33 29 27 22 19 15 14 17 14 16 14 15 16 17 18 17 17 17 21 24 25 28 27 27 29 41 56

GFSSW_500_rhum_042.txt.gz
RH
10 8 8 42 48 44 18 12 16 39 36 43 34 24 23 34 55 42 88 79 59 52 49 48 51 84 85 90 97 99 99 76 96 91 95 87 95 97 94 78 80 76 27 10 6
10 6 7 43 48 26 12 8 12 43 44 39 27 29 22 36 56 76 75 62 55 47 42 44 50 62 76 94 98 100 96 90 92 95 97 94 96 93 80 39 30 8 4 5 4
8 5 12 45 47 19 11 20 28 40 40 39 27 32 26 37 59 75 58 53 46 28 49 61 67 52 75 89 92 99 92 96 94 96 98 90 86 49 17 19 6 6 5 5 5
8 6 24 48 29 17 32 35 40 42 42 38 29 37 33 49 64 58 53 45 39 26 80 78 73 59 94 92 96 97 97 95 96 96 92 72 65 11 5 5 4 4 4 6 6
7 7 35 40 17 35 39 39 41 50 49 48 47 43 40 44 54 50 45 40 22 64 96 84 92 95 97 98 97 98 95 96 97 95 91 69 54 9 7 7 5 6 7 6 6
5 21 46 27 20 40 41 42 42 51 44 31 41 39 40 46 50 48 41 27 18 62 79 90 100 100 91 94 96 96 92 82 85 84 82 70 24 11 14 11 8 8 8 7 8
5 30 39 18 34 40 43 47 42 48 30 34 40 40 44 53 50 49 40 20 18 25 79 100 100 98 97 97 93 83 85 91 84 74 70 50 10 11 14 12 9 9 9 8 9
7 37 19 27 44 49 57 51 47 32 33 48 43 40 51 50 49 44 29 19 67 100 100 100 93 95 92 92 86 81 73 63 48 50 23 8 9 12 15 13 10 11 8 8 9
8 31 17 41 47 55 66 50 50 33 43 44 37 51 61 51 41 35 28 21 73 94 100 100 99 91 93 87 75 37 50 35 26 9 9 11 16 17 14 14 17 12 9 9 10
15 25 24 49 55 52 55 51 49 39 46 45 50 62 51 48 42 40 41 27 52 95 99 98 92 94 83 76 30 37 23 16 16 11 12 13 13 14 24 31 18 12 10 10 10
32 27 32 49 55 62 46 51 46 41 53 60 69 53 47 41 42 40 58 47 61 92 100 100 96 95 86 61 27 14 17 19 10 13 17 14 19 18 15 15 16 16 14 12 11
37 23 39 46 48 64 52 58 52 65 59 67 54 31 28 34 26 35 59 71 79 90 92 86 71 67 54 35 21 19 36 58 36 25 25 21 15 14 14 14 12 12 12 13 14
26 28 45 39 51 66 71 63 63 59 46 38 31 36 32 26 25 29 52 46 67 53 59 60 51 45 46 68 68 67 41 52 49 38 33 25 21 17 13 13 11 12 15 19 24
20 38 42 42 65 87 68 65 66 51 28 29 30 30 28 25 26 37 36 47 61 40 43 46 35 27 58 77 59 78 53 39 42 37 34 28 19 11 11 14 18 21 22 18 21
21 43 39 66 70 67 70 76 41 29 31 26 23 23 23 21 20 19 23 23 19 18 22 25 32 42 68 54 31 33 25 22 22 21 16 14 14 14 16 16 18 17 19 34 50
27 44 43 69 62 61 63 27 29 31 25 17 16 14 14 13 11 12 12 13 16 20 23 28 30 34 37 40 23 21 20 18 16 17 18 17 16 14 18 27 30 32 39 54 40
35 43 54 64 59 68 24 28 25 19 16 16 20 24 24 23 23 23 22 22 22 22 23 25 26 26 26 18 17 17 20 20 18 17 18 19 21 24 24 23 24 25 28 30 34
40 46 58 74 70 47 20 20 20 23 21 24 23 19 16 15 14 14 12 13 14 17 19 20 22 25 22 21 24 21 18 19 21 24 29 27 20 17 16 15 16 22 25 27 32
46 55 57 87 68 21 18 21 26 27 22 18 13 11 12 12 12 12 11 11 11 12 14 20 21 22 20 18 17 21 25 29 32 27 21 20 18 18 17 17 15 14 14 19 21
45 55 56 81 46 17 18 24 26 24 15 13 12 11 12 10 10 9 9 8 8 9 10 14 16 16 17 19 25 29 34 31 24 22 20 19 18 17 18 18 18 18 16 15 15
46 57 70 81 21 17 20 25 22 19 12 11 12 13 10 9 9 9 7 7 6 6 12 17 16 19 20 26 32 34 31 29 23 21 19 17 17 16 14 15 17 18 19 19 18
43 62 69 49 16 16 22 24 18 15 10 13 12 11 11 12 11 11 8 6 9 12 18 18 17 22 25 31 37 31 31 29 26 22 20 18 16 16 14 15 16 16 17 18 20
34 60 44 21 13 17 21 21 15 12 10 12 12 12 10 7 8 7 6 13 18 20 19 19 16 22 26 32 31 31 30 27 25 22 19 18 17 17 16 16 18 20 23 23 22
46 55 32 17 16 21 20 18 15 21 12 13 13 10 8 8 13 18 20 25 27 26 22 20 20 23 28 28 24 24 23 20 18 18 18 18 17 17 16 21 24 27 31 27 25
61 49 24 14 15 20 20 17 28 17 14 14 12 10 8 7 17 26 30 28 32 28 24 20 22 24 26 26 21 16 15 14 16 17 18 18 17 16 16 20 25 29 34 32 28
55 33 19 18 23 21 18 15 31 21 15 14 12 11 8 7 15 30 29 26 28 28 25 21 21 24 22 23 20 13 13 15 15 16 18 17 17 16 16 19 25 28 35 36 31
51 26 20 21 22 21 17 14 16 14 12 13 12 11 7 7 18 25 32 32 29 25 23 21 21 21 16 18 15 12 15 19 16 17 17 17 16 16 17 19 23 25 33 34 33

GFSSW_500_rhum_045.txt.gz
RH
12 12 12 8 5 4 25 41 19 11 9 25 29 39 34 26 24 28 28 27 45 42 47 55 53 53 49 57 77 95 100 100 94 87 90 94 87 89 97 97 86 67 63 17 7
13 13 11 8 4 5 37 38 16 11 12 28 36 38 30 28 23 24 35 80 72 58 56 57 54 50 61 82 96 94 97 96 89 81 98 98 98 96 94 96 57 11 7 6 5
17 15 11 8 4 10 38 20 22 31 33 31 36 38 34 31 24 46 66 67 53 57 49 45 44 51 85 95 99 94 93 94 98 88 97 96 95 95 79 32 7 7 6 6 6
18 16 12 7 6 25 21 26 34 33 35 38 41 41 33 32 31 46 64 55 49 45 32 54 56 54 100 100 99 98 90 84 94 96 94 93 58 35 6 5 7 6 5 7 7
20 18 13 7 6 31 19 33 39 40 39 44 47 36 37 36 42 57 53 47 46 30 61 78 72 76 95 99 89 95 96 96 94 93 91 41 11 7 7 7 8 8 8 10 11
25 21 13 7 11 25 25 36 39 42 42 49 45 48 51 42 44 52 46 45 27 87 94 93 95 97 100 97 93 97 96 86 90 94 96 50 12 19 15 13 11 10 11 13 13
25 21 13 7 16 22 35 39 44 46 44 33 30 35 45 43 47 50 52 40 29 100 97 98 97 99 93 98 98 96 95 94 96 90 73 47 13 34 26 15 14 17 16 14 12
25 21 12 6 20 25 37 43 56 51 46 31 36 45 45 43 50 52 49 30 31 99 100 99 100 93 98 97 97 84 93 79 71 73 65 24 12 20 31 20 21 20 18 16 17
24 19 10 8 24 31 44 40 59 50 39 33 45 51 49 54 52 51 41 31 65 100 100 96 98 96 96 92 80 65 86 54 37 31 22 16 20 22 27 25 25 20 14 16 17
21 17 9 13 27 40 48 43 56 50 34 37 53 52 60 54 52 41 38 50 100 100 100 98 96 93 95 96 48 42 48 48 38 28 15 17 30 30 32 20 29 24 20 17 17
20 16 9 23 27 48 48 47 51 50 39 43 67 64 53 55 43 44 52 43 97 98 93 100 91 96 95 60 33 32 32 37 36 24 25 28 23 23 21 26 24 22 21 18 15
20 16 9 25 33 46 45 53 48 51 47 51 50 70 50 50 67 45 68 54 75 100 100 96 95 87 91 69 37 41 37 31 31 37 30 28 27 22 20 18 16 14 14 15 17
18 14 10 24 42 42 43 59 52 57 51 57 64 62 45 35 38 36 67 87 86 100 100 90 79 70 68 63 52 32 54 88 68 55 36 29 21 17 16 14 14 15 18 18 19
14 12 12 28 42 39 48 74 68 59 53 46 53 37 37 35 28 28 61 96 100 95 100 92 82 66 62 58 55 55 44 26 30 38 24 23 17 12 12 14 15 16 14 15 16
13 11 18 38 41 50 62 72 60 72 52 40 35 35 32 25 26 29 50 80 100 94 80 62 72 53 52 47 49 57 77 67 45 26 17 13 12 15 15 14 15 20 24 26 30
14 10 21 42 41 52 60 56 69 51 31 30 30 30 28 24 26 41 42 51 64 57 51 38 32 32 26 44 71 43 32 27 22 17 15 18 16 17 21 24 24 25 23 24 24
16 16 25 40 49 49 47 55 45 31 26 25 24 24 23 20 20 22 24 22 19 18 21 24 27 32 38 44 44 31 21 19 19 20 17 19 24 25 20 17 16 15 15 16 18
17 23 37 38 55 49 55 45 19 24 20 17 17 17 16 15 13 11 12 13 16 20 23 27 32 33 34 31 25 18 19 22 16 19 27 26 19 17 13 14 14 14 14 14 15
24 26 44 43 61 56 60 26 19 20 17 21 25 24 24 22 23 22 22 22 21 21 22 23 21 21 23 26 24 22 17 18 25 30 24 20 18 18 17 18 18 18 19 18 17
34 33 48 53 67 63 52 16 17 20 24 24 23 19 15 15 14 12 12 12 12 12 12 14 15 18 19 20 19 15 21 27 31 24 21 20 18 18 18 16 16 16 15 16 18
30 38 51 68 70 71 25 15 19 23 25 22 14 12 13 13 12 12 10 10 10 10 9 10 12 18 16 15 16 23 30 32 28 23 20 19 19 18 17 16 14 14 19 24 28
25 45 54 63 60 64 16 18 22 28 22 15 12 12 12 12 11 11 11 9 8 7 7 10 15 18 20 15 21 29 34 32 31 25 24 22 18 18 17 16 14 20 25 28 32
25 57 62 58 55 46 16 20 27 27 16 13 12 13 12 13 12 9 8 9 6 7 11 13 17 18 20 19 25 33 33 32 31 27 25 20 18 17 17 16 15 17 24 27 28
40 54 70 66 74 28 16 22 23 22 14 12 14 14 13 10 7 9 9 7 8 15 19 20 20 18 18 23 29 33 33 30 27 24 19 17 17 18 17 17 16 16 17 23 25
37 47 63 67 69 24 18 23 21 19 14 11 15 14 12 9 7 12 18 20 24 25 26 24 22 20 19 23 28 27 24 23 20 16 15 16 17 18 18 17 16 16 16 18 22
44 41 66 76 49 27 19 22 23 18 22 15 15 13 13 10 7 11 25 29 28 29 30 24 22 20 21 23 24 24 20 16 15 14 15 16 16 17 17 17 16 16 18 20 21
52 40 63 81 31 27 18 21 24 37 22 16 15 14 13 10 6 11 22 33 30 25 24 22 20 18 18 19 18 14 17 18 16 16 16 17 17 16 17 16 17 18 20 21 22

GFSSW_500_rhum_048.txt.gz
RH
13 14 19 18 16 12 7 4 16 36 24 14 9 20 30 34 32 29 21 28 25 19 38 48 67 66 59 51 49 77 86 100 98 99 93 93 80 94 97 98 88 87 83 48 80
16 17 20 20 18 12 7 5 20 25 20 23 24 28 37 34 32 28 28 26 48 68 62 44 65 65 60 53 55 85 87 100 99 94 97 97 96 97 97 93 91 26 34 10 18
17 18 20 19 20 12 7 7 22 25 27 23 28 32 33 33 38 28 29 38 70 63 63 62 52 55 53 64 88 96 99 90 95 98 94 95 95 96 98 97 50 7 7 8 6
17 22 21 20 21 12 7 11 23 26 31 34 30 34 34 41 35 32 35 62 56 57 52 45 52 49 46 86 99 96 85 97 98 97 98 93 94 97 96 50 14 10 8 12 10
22 26 22 21 20 13 7 15 24 29 36 37 40 42 47 32 37 33 52 55 54 45 33 41 56 54 59 92 90 95 94 96 100 92 58 58 43 16 10 11 14 15 12 12 12
23 28 23 21 19 13 7 18 25 34 40 39 43 40 47 49 44 41 56 51 47 36 67 77 71 70 100 95 100 94 96 98 97 90 39 29 21 23 17 14 15 17 14 13 13
25 29 23 21 18 12 10 22 26 37 52 45 41 26 35 54 44 44 53 53 42 95 93 87 81 90 92 99 96 96 97 97 97 96 66 38 37 22 21 31 21 21 19 16 15
21 24 21 20 17 10 13 23 25 35 57 48 34 32 37 41 41 46 55 43 80 99 100 100 92 97 97 98 95 97 97 97 94 76 50 21 39 19 24 29 36 27 22 16 14
18 20 17 20 17 10 18 24 31 42 55 50 35 36 50 43 54 55 53 36 55 100 98 98 97 95 98 95 98 96 98 89 86 63 42 15 24 27 29 34 36 33 27 22 20
17 14 14 18 16 11 22 28 43 50 49 44 35 44 46 49 52 54 52 40 70 95 99 97 100 98 98 96 91 72 68 56 43 31 22 20 20 23 28 34 43 49 35 27 22
16 12 12 17 16 13 22 33 44 50 51 40 55 50 49 52 53 50 40 63 100 97 98 95 94 96 100 94 41 55 70 64 48 54 31 32 48 49 32 52 61 42 27 21 17
12 12 12 18 15 16 24 37 42 46 50 42 56 51 50 51 51 40 49 68 96 96 96 88 95 97 100 86 46 97 99 54 41 43 36 43 42 36 30 26 23 22 19 17 18
9 11 12 18 13 20 27 37 43 53 49 46 49 42 55 57 56 49 43 56 78 98 97 100 96 96 96 91 57 81 99 59 85 63 46 42 32 29 23 19 18 18 20 21 22
5 9 12 20 14 21 33 34 51 67 55 46 51 57 61 59 52 62 46 80 93 96 98 100 92 80 69 66 66 53 36 19 78 75 82 35 77 21 22 18 16 21 23 20 18
3 6 13 24 18 24 32 38 60 69 63 55 44 49 51 34 38 36 34 74 79 98 100 93 94 89 77 63 51 54 72 93 84 67 36 29 21 64 18 16 17 16 18 23 27
2 6 17 23 22 24 27 40 63 58 56 41 39 41 34 33 27 25 29 64 98 99 100 93 93 69 61 55 54 68 78 55 72 47 30 20 18 66 19 18 21 22 22 20 19
2 9 25 23 22 34 30 42 48 41 46 37 34 30 34 26 26 24 32 54 79 88 85 71 61 45 43 36 37 64 65 39 26 21 18 18 18 30 23 19 16 14 13 14 15
4 16 29 22 24 36 34 38 42 46 45 35 25 30 29 25 23 26 27 34 38 50 48 35 29 31 32 38 52 52 37 23 20 22 19 20 26 18 15 14 15 16 18 17 15
9 20 32 22 29 37 52 37 42 33 25 22 21 25 24 21 18 18 18 16 16 17 20 22 26 27 30 33 31 27 23 24 23 17 26 25 18 17 17 17 17 16 18 15 16
9 19 34 23 29 40 60 46 37 23 20 16 14 14 15 13 14 14 16 17 20 21 24 25 23 22 23 22 22 24 24 19 19 28 29 21 20 18 17 17 16 15 14 15 22
8 24 31 23 31 37 65 48 27 22 16 12 15 22 22 23 23 20 18 16 15 14 14 13 15 16 16 20 20 20 16 21 31 31 22 21 20 18 18 18 17 16 15 18 25
11 26 30 24 34 36 74 43 22 20 13 15 24 20 13 14 13 13 12 11 11 11 10 10 10 10 14 17 16 15 18 29 33 29 24 21 21 20 18 18 18 17 16 16 16
27 38 34 27 34 41 79 36 20 19 19 24 20 13 12 13 12 11 10 9 9 8 6 6 7 10 14 17 16 16 25 34 32 32 30 26 24 20 18 18 18 18 17 16 16
60 46 33 48 44 74 76 28 17 24 24 22 15 12 12 12 12 11 9 7 7 8 6 7 11 16 18 20 21 22 28 35 31 29 29 26 22 17 16 16 17 18 18 17 16
64 40 35 38 60 83 84 24 20 26 23 18 13 13 14 13 10 7 9 12 10 8 10 15 18 20 20 17 17 22 28 32 30 29 26 21 17 16 16 16 16 17 17 17 16
66 47 37 66 76 97 71 22 22 26 25 14 13 14 14 12 9 7 9 17 23 26 26 26 25 23 21 19 16 19 24 27 27 21 17 19 14 17 16 17 17 16 16 17 17
55 38 38 74 78 98 59 21 23 27 28 14 17 17 14 12 9 6 8 15 28 29 26 29 28 25 20 19 18 17 21 23 25 25 24 18 17 15 16 15 15 16 17 18 19

GFSSW_500_rhum_051.txt.gz
RH
12 9 11 17 19 15 16 16 10 6 11 22 19 18 16 20 33 34 30 28 23 20 20 50 50 75 69 57 47 68 79 92 96 78 90 94 57 52 80 79 83 88 84 93 81
12 12 12 16 20 15 16 17 10 6 15 22 18 19 22 26 34 31 31 28 23 35 33 35 48 75 71 62 54 47 87 96 80 78 94 96 71 64 96 83 93 85 76 48 66
12 13 13 19 20 14 13 17 9 8 17 21 19 28 22 27 35 30 33 29 27 72 71 70 53 55 74 66 55 57 68 90 81 93 100 100 76 76 86 93 95 74 56 15 18
15 16 17 21 20 14 12 16 9 10 20 22 27 31 34 35 40 34 34 32 61 69 60 58 63 58 65 66 57 74 97 75 81 82 96 65 62 74 95 94 81 19 8 6 10
15 17 20 23 22 15 12 16 9 12 22 25 34 36 38 45 42 36 33 42 64 56 50 37 45 56 56 55 61 84 84 89 96 84 87 83 94 96 98 66 22 14 13 11 12
19 18 22 24 18 16 12 15 9 14 23 33 44 42 37 27 42 43 38 58 62 48 37 34 50 49 50 79 98 100 88 97 92 55 93 98 82 98 40 33 24 16 15 12 12
22 23 24 21 16 14 13 14 9 17 25 35 52 47 26 28 45 46 45 56 48 42 45 68 67 64 83 92 91 87 94 94 92 74 66 94 82 84 29 18 21 23 18 16 13
27 27 24 16 18 14 14 13 10 18 30 33 51 44 30 39 38 41 47 56 47 87 85 80 90 94 96 86 90 99 97 98 95 61 72 96 84 33 28 28 22 23 21 17 15
30 26 17 15 15 16 15 12 12 24 36 41 49 36 35 48 42 48 55 58 84 100 93 89 96 93 97 96 98 94 95 100 86 85 40 88 84 26 35 39 33 27 22 17 15
26 17 15 13 13 15 16 12 13 31 39 45 42 32 40 44 50 60 54 60 48 92 93 96 98 94 98 89 100 95 96 97 100 74 30 73 83 23 45 69 68 57 39 31 23
19 16 14 13 12 14 17 12 16 33 40 46 42 33 47 40 48 51 52 66 43 66 96 97 98 99 92 100 100 91 80 78 81 39 74 84 38 29 48 57 67 46 34 28 22
18 15 13 13 12 14 17 12 19 30 40 44 47 35 44 40 53 52 50 51 96 71 98 86 91 94 99 94 93 98 98 93 76 44 44 45 54 52 33 30 32 38 26 24 25
15 14 12 10 12 14 19 13 21 32 39 44 48 36 41 44 52 49 42 49 95 100 94 99 98 92 100 94 94 92 98 97 85 70 44 90 71 19 23 23 22 24 24 27 24
15 13 11 8 10 16 17 12 22 32 48 46 50 42 44 51 58 57 39 41 78 100 95 82 98 98 92 100 97 97 47 37 70 36 88 36 94 96 41 27 33 28 23 21 22
13 12 7 5 11 15 18 14 23 40 55 40 51 43 45 52 50 65 53 50 81 84 97 100 100 86 94 98 62 96 47 70 93 84 96 76 61 96 68 48 23 21 19 19 18
12 8 4 3 8 13 17 14 29 45 53 44 43 43 38 45 44 34 57 36 46 68 70 95 95 74 95 74 73 47 65 91 74 90 92 73 97 96 87 58 16 16 15 19 26
6 5 2 2 6 16 15 17 34 48 40 40 38 37 40 38 29 29 33 29 39 48 90 92 93 62 76 52 54 47 72 100 99 93 77 83 47 68 68 45 24 23 19 15 15
4 3 2 2 8 16 14 32 35 34 34 35 38 35 28 28 26 24 23 33 54 90 99 96 71 50 45 74 100 38 100 100 90 79 82 80 30 70 26 20 15 14 14 17 16
5 2 2 3 6 12 16 18 35 33 44 39 39 29 24 25 23 24 22 57 64 40 99 100 99 59 30 41 48 62 58 44 41 21 23 27 73 26 17 16 17 17 16 17 16
2 2 2 3 8 14 17 15 42 33 36 28 28 25 24 24 22 21 23 29 62 20 47 93 99 56 24 28 31 36 35 28 24 22 20 67 71 78 18 17 17 16 15 14 14
2 2 3 3 7 12 10 21 46 42 36 18 22 25 25 22 20 14 16 14 14 16 18 32 27 58 24 22 47 22 21 24 27 23 28 39 56 38 18 18 18 17 17 16 15
2 2 3 3 7 7 12 28 53 51 32 16 16 16 15 14 14 20 22 24 20 21 22 21 18 20 13 13 16 16 17 16 14 26 32 28 35 24 20 19 18 18 18 17 18
2 2 16 5 7 10 20 32 51 54 27 16 14 14 19 22 21 16 14 12 13 12 12 10 11 10 8 8 10 14 15 14 18 28 32 28 26 21 23 22 21 17 16 17 17
2 2 4 4 13 21 22 35 52 55 23 15 17 23 22 14 13 11 10 9 8 9 9 9 8 7 10 93 76 20 15 16 24 31 32 28 32 28 24 23 20 15 16 16 16
2 2 4 7 9 20 32 46 70 51 21 15 21 23 15 12 12 10 10 10 8 8 8 10 9 7 12 14 23 19 22 23 25 32 34 28 33 30 24 19 15 14 14 15 17
1 3 3 12 38 34 49 49 72 52 20 20 24 20 14 14 13 12 8 7 10 14 11 10 14 18 19 19 20 18 17 21 24 30 34 32 30 26 20 15 17 13 16 17 15
2 5 10 11 50 38 38 62 76 40 19 25 26 20 15 14 12 10 7 7 13 23 26 28 28 31 25 25 23 18 18 20 23 25 27 27 29 23 19 20 18 16 15 14 15

GFSSW_500_rhum_054.txt.gz
RH
14 14 14 12 13 14 18 10 9 9 7 6 6 16 17 20 16 20 26 28 28 29 16 13 37 72 81 69 49 52 56 64 85 96 98 58 68 62 93 76 78 52 63 82 97
13 13 14 13 14 16 18 10 9 9 8 6 7 18 22 29 20 18 26 27 29 26 31 19 27 46 80 70 55 48 67 90 95 85 94 94 83 95 98 96 98 57 64 82 79
11 13 14 14 15 18 18 9 8 10 9 6 8 21 29 30 25 23 28 29 29 25 69 72 61 52 77 71 62 54 53 99 77 93 96 90 87 84 86 88 77 84 74 73 59
14 14 15 14 16 20 18 8 9 11 9 6 8 21 34 37 36 41 38 34 31 48 64 60 64 64 46 77 71 56 81 97 69 54 53 79 87 87 80 76 90 87 78 67 35
18 17 17 19 18 22 16 8 8 12 9 6 10 24 40 42 38 35 36 35 35 60 58 54 53 60 63 73 78 76 100 85 68 76 98 95 77 96 94 100 97 72 54 17 21
29 28 25 21 21 24 14 8 8 11 10 7 12 25 49 45 31 27 43 36 45 60 51 45 32 43 69 97 100 82 93 62 92 95 90 92 94 97 79 78 34 32 33 15 15
34 32 30 25 26 24 12 8 8 11 9 8 14 29 52 36 34 35 48 44 54 54 46 36 44 46 62 96 96 100 70 96 96 86 91 93 94 38 41 36 22 20 12 10 10
36 33 32 28 28 22 12 9 9 12 9 10 19 34 46 33 41 38 39 47 56 47 52 53 67 54 51 90 88 96 90 97 96 94 96 95 96 60 48 29 36 30 13 10 9
37 37 35 32 30 17 12 9 9 11 9 12 23 39 39 29 46 38 42 48 57 78 80 88 79 88 93 97 96 95 97 80 83 90 96 96 63 38 32 33 37 19 17 12 11
39 41 39 33 26 15 12 10 9 10 10 15 29 39 38 33 42 47 52 54 68 98 98 92 91 96 98 94 96 95 95 83 96 81 89 82 66 55 30 20 26 20 24 18 14
43 45 40 26 18 15 12 10 9 12 10 17 28 35 37 35 37 43 44 46 76 81 100 100 98 99 97 95 97 94 96 99 83 50 46 98 85 20 23 27 97 15 25 20 15
46 44 35 22 18 15 12 10 9 9 11 21 30 38 38 38 34 43 47 50 48 90 76 93 96 99 97 94 98 99 93 90 91 27 29 98 90 37 22 16 15 18 23 20 19
45 36 25 20 17 16 12 10 9 11 10 22 29 38 40 34 39 42 46 48 97 97 83 91 92 67 86 94 90 100 97 82 84 19 22 91 46 19 21 18 17 17 16 16 16
37 32 24 24 15 14 10 10 11 12 10 21 34 43 44 34 36 38 56 46 97 95 90 92 90 72 92 92 94 97 96 89 98 54 46 64 99 98 56 29 20 22 23 15 14
46 33 29 22 14 13 11 10 12 12 16 20 33 38 47 39 36 40 47 58 46 100 98 90 75 84 75 100 95 77 82 69 93 97 95 95 84 58 96 75 46 51 33 20 15
71 43 40 19 11 11 8 7 14 14 21 25 31 38 49 38 36 48 46 54 47 88 77 72 96 81 97 94 71 48 51 59 57 61 95 94 90 83 91 96 90 56 34 18 16
65 70 48 21 11 9 5 6 15 13 27 29 32 31 48 37 40 37 32 43 51 50 73 57 93 71 59 35 38 40 55 85 91 92 63 88 95 95 58 87 50 19 26 23 20
53 63 26 14 11 5 4 6 9 12 25 30 26 35 38 32 24 27 26 35 33 31 67 75 73 46 37 35 72 34 70 87 89 92 100 72 68 74 23 29 36 22 15 14 17
76 23 25 5 4 3 3 4 8 17 31 42 30 40 39 25 90 25 21 31 22 30 100 94 97 79 77 26 71 98 77 93 90 67 45 50 65 48 43 40 18 17 18 18 16
89 74 19 7 2 2 2 5 8 19 22 42 30 41 65 38 68 57 22 22 73 96 90 98 63 92 56 23 20 23 39 36 27 21 17 31 82 84 93 51 19 18 18 16 15
6 68 10 8 2 5 4 5 8 19 21 41 35 48 41 92 90 76 28 29 39 77 70 86 97 99 45 21 23 25 34 24 26 62 72 21 94 79 63 51 21 18 18 17 17
28 22 25 12 44 28 3 5 12 19 17 40 41 31 84 98 84 30 27 22 18 15 16 22 27 32 30 30 16 20 35 38 22 18 29 16 35 77 74 51 22 20 19 18 18
17 9 29 74 45 19 3 4 12 21 21 48 37 26 21 88 100 45 78 14 15 19 21 22 19 18 28 70 20 10 12 16 20 18 13 15 28 33 28 24 22 23 21 21 20
4 8 29 44 10 4 3 4 11 19 25 54 36 25 19 48 84 24 23 18 15 14 13 12 10 11 10 18 88 85 45 16 16 14 13 22 32 49 31 30 28 27 25 21 17
3 7 32 19 11 9 3 7 12 21 26 56 33 24 16 15 22 22 18 12 11 9 10 9 9 11 10 11 54 54 54 56 21 15 18 27 38 37 84 57 17 13 19 18 19
3 4 16 15 10 20 11 4 11 27 27 62 37 22 14 22 18 15 14 10 10 11 9 8 9 9 8 9 7 12 13 17 18 20 23 27 33 39 42 41 27 23 24 22 19
2 2 3 4 4 6 6 10 17 29 38 71 34 23 22 29 30 18 14 10 9 7 9 15 14 13 14 16 19 18 21 21 19 18 22 24 27 33 30 24 24 24 25 17 16